Carbondale, IL

4:51 AM CST on November 15, 2019 (GMT -0600)
Southern Illinois

Weather History for KMDH - August, 2019

Change the Weather History Date:

Monday, August 5, 2019

  Actual Average Record
Temperature  
Mean Temperature 75 °F -  
Max Temperature 89 °F 86 °F 108 °F (1918)
Min Temperature 62 °F 64 °F 47 °F (1912)
Cooling Degree Days 10    
Growing Degree Days 25 (Base 50)    
Moisture  
Dew Point 66 °F    
Average Humidity 80    
Maximum Humidity 100    
Minimum Humidity 46    
Precipitation  
Precipitation 0.00 in - - ()
Sea Level Pressure  
Sea Level Pressure 29.97 in    
Wind  
Wind Speed 1 mph (South)    
Max Wind Speed 8 mph    
Max Gust Speed -    
Visibility 7 miles    
Events      
Averages and records for this station are not official NWS values.
T = Trace of Precipitation, MM = Missing Value Source: NWS Daily Summary

Daily Weather History Graph

Daily Weather History Graph

Search for Another Location

Airport or City:

Astronomy

Aug. 05, 2019 Rise Set
Actual Time 6:03 AM CDT 8:01 PM CDT
Civil Twilight 5:34 AM CDT 8:30 PM CDT
Nautical Twilight 4:59 AM CDT 9:05 PM CDT
Astronomical Twilight 4:22 AM CDT 9:42 PM CDT
Moon 11:14 AM CDT (8/5) 11:19 PM CDT (8/5)
Length of Visible Light 14h 55m
Length of Day
13h 58m
Waxing Crescent, 28% of the Moon is Illuminated
Aug 5
Waxing Crescent
Aug 7
First Quarter
Aug 15
Full
Aug 23
Last Quarter
Aug 30
New

Hourly Weather History & Observations

Time (CDT) Temp. Heat Index Dew Point Humidity Pressure Visibility Wind Dir Wind Speed Gust Speed Precip Events Conditions
12:52 AM 66.9 °F - 64.9 °F 93% 30.00 in 8.0 mi Calm Calm - N/A   Clear
1:52 AM 64.9 °F - 64.0 °F 97% 30.00 in 8.0 mi Calm Calm - N/A   Clear
2:52 AM 64.0 °F - 63.0 °F 96% 29.99 in 6.0 mi Calm Calm - N/A   Clear
3:52 AM 64.0 °F - 63.0 °F 96% 29.99 in 5.0 mi Calm Calm - N/A   Clear
4:47 AM 62.6 °F - 62.6 °F 100% 29.99 in 1.8 mi Calm Calm - N/A   Clear
4:52 AM 63.0 °F - 62.1 °F 97% 29.98 in 1.2 mi Calm Calm - N/A   Clear
5:02 AM 64.0 °F - 63.0 °F 96% 29.99 in 3.0 mi Calm Calm - N/A   Clear
5:27 AM 63.0 °F - 63.0 °F 100% 29.99 in 1.5 mi Calm Calm - N/A   Clear
5:37 AM 64.0 °F - 63.0 °F 96% 30.00 in 3.0 mi Calm Calm - N/A   Clear
5:52 AM 64.0 °F - 63.0 °F 96% 29.99 in 5.0 mi Calm Calm - N/A   Clear
6:13 AM 63.0 °F - 62.1 °F 97% 30.00 in 1.8 mi Calm Calm - N/A   Clear
6:38 AM 64.0 °F - 63.0 °F 96% 30.01 in 3.0 mi Calm Calm - N/A   Clear
6:52 AM 64.9 °F - 64.0 °F 97% 30.00 in 4.0 mi Calm Calm - N/A   Clear
7:52 AM 70.0 °F - 66.9 °F 90% 30.01 in 7.0 mi Calm Calm - N/A   Clear
8:52 AM 75.9 °F - 68.0 °F 76% 30.02 in 9.0 mi Calm Calm - N/A   Clear
9:52 AM 81.0 °F 83.3 °F 66.9 °F 62% 30.02 in 10.0 mi Calm Calm - N/A   Clear
10:52 AM 84.0 °F 86.5 °F 66.9 °F 56% 30.01 in 10.0 mi East 3.5 mph - N/A   Clear
11:52 AM 86.0 °F 87.6 °F 64.9 °F 49% 30.01 in 10.0 mi Calm Calm - N/A   Clear
12:52 PM 86.0 °F 86.8 °F 63.0 °F 46% 30.00 in 10.0 mi Variable 3.5 mph - N/A   Clear
1:52 PM 87.1 °F 89.2 °F 66.0 °F 49% 29.99 in 10.0 mi SSW 5.8 mph - N/A   Clear
2:52 PM 87.1 °F 89.2 °F 66.0 °F 49% 29.97 in 10.0 mi SSW 8.1 mph - N/A   Partly Cloudy
3:52 PM 88.0 °F 89.6 °F 64.9 °F 46% 29.96 in 10.0 mi WSW 5.8 mph - N/A   Clear
4:52 PM 87.1 °F 88.9 °F 64.9 °F 48% 29.94 in 10.0 mi NW 3.5 mph - N/A   Clear
5:52 PM 84.9 °F 87.6 °F 66.9 °F 55% 29.92 in 9.0 mi Calm Calm - N/A   Clear
6:52 PM 84.0 °F 88.4 °F 70.0 °F 63% 29.91 in 9.0 mi Calm Calm - N/A   Clear
7:52 PM 75.9 °F - 73.0 °F 91% 29.91 in 8.0 mi Calm Calm - N/A   Clear
8:52 PM 73.9 °F - 71.1 °F 91% 29.89 in 8.0 mi ESE 3.5 mph - N/A   Clear
9:52 PM 73.9 °F - 70.0 °F 87% 29.90 in 10.0 mi South 3.5 mph - N/A   Clear
10:52 PM 73.0 °F - 70.0 °F 90% 29.91 in 9.0 mi Calm Calm - N/A   Clear
11:52 PM 73.0 °F - 70.0 °F 90% 29.92 in 9.0 mi Calm Calm - N/A   Clear